Weather History for PAED - November, 2012

Change the Weather History Date:

Thursday, November 1, 2012

  Actual Average Record
Temperature  
Mean Temperature 24 °F -  
Max Temperature 27 °F 31 °F 54 °F (1951)
Min Temperature 20 °F 19 °F -9 °F (1975)
Degree Days  
Heating Degree Days 42    
Moisture  
Dew Point 6 °F    
Average Humidity 48    
Maximum Humidity 57    
Minimum Humidity 40    
Precipitation  
Precipitation 0.00 in - - ()
Sea Level Pressure  
Sea Level Pressure 29.77 in    
Wind  
Wind Speed 13 mph (NNE)    
Max Wind Speed 16 mph    
Max Gust Speed 23 mph    
Visibility 10 miles    
Events      
Averages and records for this station are not official NWS values.
T = Trace of Precipitation, MM = Missing Value Source: NWS Daily Summary

Daily Weather History Graph

Daily Weather History Graph

Search for Another Location

Airport or City:

Trip Planner

Search our weather history database for the weather conditions in past years. The results will help you decide how hot, cold, wet, or windy it might be!

Date:

Astronomy

Nov. 01, 2012 Rise Set
Actual Time 9:29 AM AKDT 5:55 PM AKDT
Civil Twilight 8:41 AM AKDT 6:42 PM AKDT
Nautical Twilight 7:49 AM AKDT 7:34 PM AKDT
Astronomical Twilight 6:59 AM AKDT 8:24 PM AKDT
Moon 7:17 PM AKDT (11/1) 12:53 PM AKDT (11/1)
Length of Visible Light 10h 01m
Length of Day
8h 26m
Waning Gibbous, 92% of the Moon is Illuminated
Nov 1
Waning Gibbous
Nov 6
Last Quarter
Nov 13
New
Nov 20
First Quarter
Nov 28
Full

Hourly Weather History & Observations

Time (AKDT) Temp. Windchill Dew Point Humidity Pressure Visibility Wind Dir Wind Speed Gust Speed Precip Events Conditions
12:55 AM 20.8 °F 9.7 °F 5.9 °F 53% 29.68 in 10.0 mi North 10.4 mph - N/A   Clear
1:55 AM 23.4 °F 10.6 °F 6.4 °F 48% 29.70 in 10.0 mi NNE 15.0 mph - N/A   Clear
2:55 AM 23.5 °F 10.3 °F 5.2 °F 46% 29.71 in 10.0 mi NNE 16.1 mph 20.7 mph N/A   Scattered Clouds
3:55 AM 23.5 °F 10.8 °F 5.7 °F 47% 29.73 in 10.0 mi NNE 15.0 mph - N/A   Clear
4:55 AM 23.5 °F 11.8 °F 5.7 °F 47% 29.74 in 10.0 mi NNE 12.7 mph 23.0 mph N/A   Clear
5:55 AM 23.0 °F 10.1 °F 4.3 °F 45% 29.75 in 10.0 mi NNE 15.0 mph - N/A   Clear
6:55 AM 23.2 °F 9.8 °F 4.1 °F 44% 29.76 in 10.0 mi NNE 16.1 mph - N/A   Clear
7:55 AM 21.2 °F 10.9 °F 8.1 °F 57% 29.78 in 10.0 mi North 9.2 mph - N/A   Clear
8:33 AM 21.2 °F 8.9 °F 6.8 °F 54% 29.78 in 10.0 mi North 12.7 mph - N/A   Partly Cloudy
8:55 AM 21.0 °F 8.6 °F 6.6 °F 54% 29.79 in 10.0 mi North 12.7 mph - 0.00 in   Clear
9:55 AM 20.5 °F 8.6 °F 5.7 °F 53% 29.82 in 10.0 mi North 11.5 mph - N/A   Clear
10:55 AM 20.5 °F 10.0 °F 6.4 °F 55% 29.84 in 10.0 mi North 9.2 mph - N/A   Clear
11:55 AM 21.6 °F 9.3 °F 6.8 °F 53% 29.85 in 10.0 mi North 12.7 mph - N/A   Clear
12:55 PM 24.4 °F 13.0 °F 7.0 °F 48% 29.85 in 10.0 mi North 12.7 mph 19.6 mph N/A   Clear
1:55 PM 25.7 °F 15.1 °F 7.2 °F 45% 29.85 in 10.0 mi NNE 11.5 mph - N/A   Clear
2:55 PM 27.0 °F 18.0 °F 7.5 °F 44% 29.83 in 10.0 mi North 9.2 mph - N/A   Clear
3:55 PM 27.0 °F 15.6 °F 7.5 °F 44% 29.82 in 10.0 mi North 13.8 mph - N/A   Clear
4:55 PM 27.1 °F 18.2 °F 7.5 °F 44% 29.81 in 10.0 mi NNE 9.2 mph - N/A   Clear
5:55 PM 26.4 °F 15.5 °F 5.9 °F 42% 29.80 in 10.0 mi NNE 12.7 mph - N/A   Clear
6:55 PM 26.1 °F 14.0 °F 4.5 °F 40% 29.78 in 10.0 mi NNE 15.0 mph - N/A   Clear
7:55 PM 25.3 °F 13.6 °F 5.7 °F 43% 29.77 in 10.0 mi NNE 13.8 mph - N/A   Clear
8:55 PM 25.0 °F 13.1 °F 5.7 °F 44% 29.75 in 10.0 mi NNE 13.8 mph - N/A   Clear
9:55 PM 25.3 °F 15.3 °F 7.3 °F 47% 29.73 in 10.0 mi NNE 10.4 mph - N/A   Clear
10:55 PM 23.7 °F 14.0 °F 6.8 °F 49% 29.70 in 10.0 mi NNE 9.2 mph - N/A   Clear
11:55 PM 23.9 °F 15.0 °F 7.2 °F 49% 29.67 in 10.0 mi NNE 8.1 mph - N/A   Clear